Weather Roundup
Issued by NWS

Home | Current Version | Previous Version | Text Only | Print | Product List | Glossary On
Versions: 1 2 3 4 5 6 7 8 9 10 11 12 13 14 15 16 17 18 19 20 21 22 23 24 25 26 27 28 29 30 31 32 33 34 35 36 37 38 39 40 41 42 43 44 45 46 47 48 49 50
773
NZUS93 KARX 271459
HRRWXR

CURRENT HOURLY OBSERVATIONS ACROSS
MUCH OF THE UPPER MISSISSIPPI VALLEY
NATIONAL WEATHER SERVICE LA CROSSE WI
1000 AM CDT SAT AUG 27 2016


...SOUTHEAST MINNESOTA...


CITY           SKY/WX    TMP DP  RH WIND       PRES   REMARKS
ROCHESTER      CLOUDY    62  60  93 E9        30.06F
ROCHESTER/MAYO CLOUDY    62  62 100 E10       30.06F
WINONA         CLOUDY    63  59  88 SE8       30.06F
AUSTIN         CLOUDY    63  59  88 SE7       30.04S
ALBERT LEA     CLOUDY    63  61  94 SE3       30.05S FOG
DODGE CENTER   RAIN      61  59  94 E8        30.06S
PRESTON        CLOUDY    63  59  88 SE8       30.06F
OWATONNA       HVY RAIN  63  59  88 E5        30.05S
FARIBAULT      HVY RAIN  61  61 100 CALM      30.06S
$$

...ELSEWHERE IN MINNESOTA...


CITY           SKY/WX    TMP DP  RH WIND       PRES   REMARKS
MINNEAPOLIS    LGT RAIN  64  59  83 SE8       30.07S
INTNL FALLS    CLOUDY    68  57  68 VRB5      30.04S
DULUTH         LGT RAIN  62  59  90 SE6       30.10S
RED WING       LGT RAIN  64  59  82 E8        30.05F
REDWOOD FALLS  CLOUDY    60  58  92 E8        30.03F
MANKATO        CLOUDY    61  57  88 NE6       30.06R
WORTHINGTON    CLOUDY    62  61  96 S5        30.03F
FAIRMONT       LGT RAIN  61  60  97 CALM      30.04F FOG
$$

...SOUTHWEST WISCONSIN...


CITY           SKY/WX    TMP DP  RH WIND       PRES   REMARKS
LA CROSSE      CLOUDY    66  61  84 SE9       30.06S
PRAIRIE DU CHI CLOUDY    64  62  96 E3        30.05S
BOSCOBEL       CLOUDY    66  64  93 VRB3      30.06F
LONE ROCK      HVY RAIN  63  63 100 E10       30.07F FOG
PLATTEVILLE    CLOUDY    64  64 100 E9        30.05F
FORT MC COY    CLOUDY    61  60  95 E7        30.09S
MAUSTON-NEW LI LGT RAIN  62  61  97 E5        30.09F
VIROQUA        CLOUDY    63  63 100 SE8G17    30.06F
WIS DELLS      NOT AVBL
$$

...ELSEWHERE IN WISCONSIN...


CITY           SKY/WX    TMP DP  RH WIND       PRES   REMARKS
MILWAUKEE      CLOUDY    67  64  90 N8        30.07F
MADISON        CLOUDY    63  61  93 E8        30.06F
GREEN BAY      LGT RAIN  62  62 100 E8        30.12F
EAU CLAIRE     CLOUDY    67  58  72 SE7       30.08F
BLACK RVR FLS  CLOUDY    64  62  93 E6        30.09S
MEDFORD        SUNNY     64  61  90 SE6       30.12F
WAUSAU         CLOUDY    63  58  83 SE10      30.11F
WIS RAPIDS     LGT RAIN  62  61  96 E9        30.11F
MARSHFIELD     CLOUDY    64  57  78 SE12      30.10F
RICE LAKE      CLOUDY    63  57  83 E5        30.12S
$$

...NORTHEAST IOWA...


CITY           SKY/WX    TMP DP  RH WIND       PRES   REMARKS
WATERLOO       CLOUDY    65  63  93 E5        30.03R
DUBUQUE        CLOUDY    66  65  96 E5        30.04F FOG
DECORAH        CLOUDY    64  64 100 E7        30.04F
MASON CITY     CLOUDY    63  62  97 SE9       30.05F FOG
CHARLES CITY   CLOUDY    64  64 100 SE8       30.05S
OELWEIN        CLOUDY    64  64 100 E5        30.05R FOG
$$

...ELSEWHERE IN IOWA...


CITY           SKY/WX    TMP DP  RH WIND       PRES   REMARKS
DES MOINES     CLOUDY    67  65  93 S5        30.03F FOG
IOWA CITY      CLOUDY    73  69  87 W10       30.04S
FORT DODGE     CLOUDY    63  61  94 S6        30.05F
MARSHALLTOWN   CLOUDY    65  65 100 S5        30.04R FOG
CEDAR RAPIDS   CLOUDY    71  71 100 SW8       30.02S
$$

...NORTHERN ILLINOIS...


CITY           SKY/WX    TMP DP  RH WIND       PRES   REMARKS
CHICAGO-OHARE  CLOUDY    72  70  93 SE5       30.04F
CHICAGO-MIDWAY CLOUDY    74  71  91 SE9       30.04F
MOLINE         PTSUNNY   76  69  79 SW12      30.02S
ROCKFORD       CLOUDY    72  69  90 S6        30.04F
PEORIA         CLOUDY    73  73 100 S10       30.05S
$$

NOTE: "FAIR" INDICATES FEW OR NO CLOUDS BELOW 12,000 FEET WITH NO
SIGNIFICANT WEATHER AND/OR OBSTRUCTIONS TO VISIBILITY. WIND
SPEEDS ARE IN MILES-PER-HOUR.




USA.gov is the U.S. government's official web portal to all federal, state and local government web resources and services.